Date,TemperatureHighF,TemperatureAvgF,TemperatureLowF,DewpointHighF,DewpointAvgF,DewpointLowF,HumidityHigh,HumidityAvg,HumidityLow,PressureMaxIn,PressureMinIn,WindSpeedMaxMPH,WindSpeedAvgMPH,GustSpeedMaxMPH,PrecipitationSumIn
2012-12-1,44,40,34,42,36,30,90,86,78,29.30,28.94,13,5,18,0.00
2012-12-2,43,39,37,40,36,34,95,91,87,29.29,29.07,11,2,15,0.00
2012-12-3,59,48,41,56,45,34,98,88,74,29.16,28.81,12,5,18,0.00
2012-12-4,42,35,23,34,22,10,78,59,47,29.59,29.14,11,3,15,0.00
2012-12-5,38,28,18,20,14,7,69,56,44,29.64,29.12,14,5,21,0.00
2012-12-6,48,39,32,39,31,20,87,72,51,29.22,28.99,12,4,17,0.00
2012-12-7,35,30,25,24,21,18,80,70,62,29.29,29.20,3,1,5,0.00
2012-12-8,34,29,24,25,22,19,82,75,66,29.31,29.24,12,1,14,0.00
2012-12-9,32,30,28,27,26,21,90,83,66,29.27,29.02,11,3,14,0.00
2012-12-10,29,22,16,26,17,-100,90,82,1,29.14,29.03,0,0,0,1.78
2012-12-11,21,17,13,16,11,7,80,78,74,29.21,28.94,4,0,5,0.00
2012-12-12,39,28,13,28,20,7,84,72,55,29.24,29.03,17,5,19,0.00
2012-12-13,39,32,21,24,20,15,77,62,51,29.35,29.19,8,2,10,0.00
2012-12-14,39,28,18,29,21,12,85,75,62,29.39,29.11,11,4,14,0.00
2012-12-15,38,37,35,36,33,29,91,86,77,29.11,28.74,14,5,18,0.00
2012-12-16,36,32,25,33,29,20,91,88,82,28.99,28.75,4,0,8,0.00
2012-12-17,25,24,23,20,18,16,83,77,72,29.00,28.91,0,0,0,0.00
2012-12-18,31,25,20,23,19,15,84,78,71,29.08,28.84,0,0,5,0.00
2012-12-19,34,30,25,27,25,20,86,81,75,29.24,29.08,6,0,8,0.00
2012-12-20,59,28,21,26,23,10,87,82,74,29.19,28.84,5,0,57,1.78
2012-12-21,21,16,8,15,6,-1,76,66,59,29.40,28.93,0,0,0,0.00
2012-12-22,27,15,3,11,4,-4,73,62,44,28.94,28.72,5,0,8,0.00
2012-12-23,23,19,16,12,10,6,72,66,59,28.92,28.77,2,0,4,0.00
2012-12-24,23,17,9,13,6,-3,67,61,53,29.00,28.79,3,0,4,0.00
2012-12-25,12,8,2,0,-4,-100,65,59,53,29.20,28.98,2,0,4,0.00
2012-12-26,18,10,5,6,0,-5,67,62,58,29.12,28.97,2,0,2,0.00
2012-12-27,25,16,3,13,6,-5,73,65,59,29.27,28.96,4,0,6,0.00
2012-12-28,25,21,17,17,13,8,78,71,63,29.29,29.09,4,0,6,0.00
2012-12-29,23,19,14,15,11,5,78,70,64,29.26,29.08,3,1,4,0.00
2012-12-30,23,14,4,14,5,-4,69,65,59,29.29,29.05,9,3,11,0.00
2012-12-31,19,14,3,11,2,-9,72,60,51,29.40,29.11,3,1,6,0.00